Henderson, KY

2:48 AM CST on November 18, 2019 (GMT -0600)
Henderson City-County

Weather History for KEHR - October, 2019

Change the Weather History Date:

Tuesday, October 22, 2019

  Actual Average Record
Temperature  
Mean Temperature 54 °F -  
Max Temperature 63 °F 69 °F 89 °F (1953)
Min Temperature 44 °F 44 °F 22 °F (1952)
Degree Days  
Heating Degree Days 12    
Growing Degree Days 4 (Base 50)    
Moisture  
Dew Point 40 °F    
Average Humidity 64    
Maximum Humidity 89    
Minimum Humidity 36    
Precipitation  
Precipitation 0.00 in - - ()
Sea Level Pressure  
Sea Level Pressure 29.91 in    
Wind  
Wind Speed 10 mph (SW)    
Max Wind Speed 23 mph    
Max Gust Speed 28 mph    
Visibility 10 miles    
Events      
Averages and records for this station are not official NWS values.
T = Trace of Precipitation, MM = Missing Value Source: NWS Daily Summary

Daily Weather History Graph

Daily Weather History Graph

Search for Another Location

Airport or City:

Astronomy

Oct. 22, 2019 Rise Set
Actual Time 7:05 AM CDT 6:04 PM CDT
Civil Twilight 6:39 AM CDT 6:30 PM CDT
Nautical Twilight 6:08 AM CDT 7:01 PM CDT
Astronomical Twilight 5:37 AM CDT 7:31 PM CDT
Moon 12:23 AM CDT (10/22) 3:05 PM CDT (10/22)
Length of Visible Light 11h 51m
Length of Day
10h 58m
Last Quarter, 37% of the Moon is Illuminated
Oct 22
Last Quarter
Oct 27
New
Nov 4
First Quarter
Nov 12
Full
Nov 19
Last Quarter

Hourly Weather History & Observations

Time (CDT) Temp. Windchill Dew Point Humidity Pressure Visibility Wind Dir Wind Speed Gust Speed Precip Events Conditions
12:56 AM 53.1 °F - 50.0 °F 89% 29.82 in 10.0 mi SW 6.9 mph - N/A   Clear
1:56 AM 54.0 °F - 48.9 °F 83% 29.81 in 10.0 mi SW 9.2 mph - N/A   Clear
2:56 AM 54.0 °F - 46.0 °F 75% 29.81 in 10.0 mi SW 10.4 mph - N/A   Clear
3:56 AM 52.0 °F - 46.0 °F 80% 29.81 in 10.0 mi SW 9.2 mph - N/A   Clear
4:56 AM 50.0 °F - 43.0 °F 77% 29.83 in 10.0 mi WSW 10.4 mph - N/A   Clear
5:56 AM 48.9 °F - 42.1 °F 77% 29.85 in 10.0 mi WSW 9.2 mph - N/A   Clear
6:56 AM 46.9 °F - 42.1 °F 83% 29.87 in 10.0 mi SW 9.2 mph - N/A   Clear
7:56 AM 50.0 °F - 42.1 °F 74% 29.89 in 10.0 mi SW 8.1 mph - N/A   Clear
8:56 AM 53.1 °F - 43.0 °F 69% 29.91 in 10.0 mi SW 12.7 mph - N/A   Clear
9:56 AM 54.0 °F - 42.1 °F 64% 29.92 in 10.0 mi WSW 11.5 mph 19.6 mph N/A   Clear
10:56 AM 57.0 °F - 42.1 °F 57% 29.93 in 10.0 mi WSW 20.7 mph 25.3 mph N/A   Clear
11:56 AM 59.0 °F - 42.1 °F 53% 29.92 in 10.0 mi WSW 15.0 mph - N/A   Clear
12:56 PM 62.1 °F - 43.0 °F 50% 29.90 in 10.0 mi SW 19.6 mph - N/A   Clear
1:56 PM 63.0 °F - 41.0 °F 45% 29.88 in 10.0 mi WSW 23.0 mph 27.6 mph N/A   Partly Cloudy
2:56 PM 63.0 °F - 37.9 °F 40% 29.90 in 10.0 mi WSW 19.6 mph 23.0 mph N/A   Clear
3:56 PM 62.1 °F - 35.1 °F 37% 29.92 in 10.0 mi West 16.1 mph 24.2 mph N/A   Clear
4:56 PM 61.0 °F - 34.0 °F 36% 29.93 in 10.0 mi West 13.8 mph 21.9 mph N/A   Clear
5:56 PM 57.9 °F - 37.9 °F 47% 29.95 in 10.0 mi WSW 8.1 mph - N/A   Clear
6:56 PM 50.0 °F - 37.9 °F 63% 29.96 in 10.0 mi SW 5.8 mph - N/A   Clear
7:56 PM 46.9 °F - 37.0 °F 68% 29.99 in 10.0 mi SW 5.8 mph - N/A   Clear
8:56 PM 46.0 °F 43.1 °F 35.1 °F 66% 30.00 in 10.0 mi SW 5.8 mph - N/A   Clear
9:56 PM 44.1 °F 40.8 °F 34.0 °F 68% 30.03 in 10.0 mi SW 5.8 mph - N/A   Clear
10:56 PM 45.0 °F 42.6 °F 34.0 °F 65% 30.04 in 10.0 mi WSW 4.6 mph - N/A   Clear
11:56 PM 46.9 °F - 33.1 °F 59% 30.05 in 10.0 mi WSW 5.8 mph - N/A   Clear